Location: Rock Island IL
(41.5000°N, 90.5500°W)
Time: 06:28:40
(UTC-06:00)

Daily predictions for brighter satellites

Satellite Brightness Start Highest point End
(mag) Time Altitude Azimuth Time Altitude Azimuth Time Altitude Azimuth
SL-16 R/B 4.5 16:52:42 10° N 16:57:37 26° WNW 17:02:33 10° WSW
NOSS 3-3 (A) 4.4 16:52:03 10° S 16:57:53 47° ESE 17:04:07 10° NE
NOSS 3-3 (C) 4.4 16:52:10 10° S 16:57:59 46° ESE 17:04:13 10° NE
Meteor 1-5 Rocket 4.2 16:52:40 10° N 16:58:09 81° E 17:03:46 10° SSE
Cosmos 2082 Rocket 3.4 16:54:32 10° N 16:58:47 21° NE 17:03:01 10° E
Cosmos 1238 Rocket 2.8 17:00:15 10° SSE 17:02:56 33° E 17:05:46 10° NNE
YAOGAN 1 3.1 16:59:44 10° SE 17:03:43 38° ENE 17:07:44 10° N
Ariane Rocket 4.1 16:59:30 10° S 17:04:25 50° W 17:09:21 10° NNW
SPOT 3 Rocket 3.8 16:59:28 10° SE 17:04:26 49° ENE 17:09:25 10° N
MSX 4.4 16:59:41 10° SE 17:04:50 35° ENE 17:09:59 10° N
Cosmos 1975 3.8 17:01:31 10° NNE 17:05:01 27° ENE 17:08:29 10° SE
CZ-4 R/B 1.5 17:01:06 10° SSE 17:05:11 55° ENE 17:09:14 10° N
ATLAS 2AS CENTAUR R/B 3.1 16:58:11 10° NNW 17:06:20 82° NE 17:13:54 10° SE
Cosmos 494 Rocket 4.1 17:01:48 10° NNW 17:06:59 59° ENE 17:12:10 10° SSE
COSMOS 2487 3.8 17:06:19 10° NNE 17:09:05 20° ENE 17:11:49 10° ESE
Cosmos 1500 4.3 17:07:00 10° NNE 17:10:09 24° ENE 17:13:18 10° SE
Meteor 1-12 Rocket 4.5 17:05:51 10° N 17:11:30 51° ENE 17:17:13 10° SSE
Meteor 2-19 Rocket 4.4 17:05:45 10° N 17:11:49 73° E 17:17:50 10° SSE
CRYOSAT 2 4.4 17:07:00 10° N 17:11:54 66° E 17:16:45 10° S
Cosmos 1484 Rocket 4.1 17:09:39 10° ESE 17:12:15 18° ENE 17:14:51 10° NNE
CZ-2C R/B 2.6 17:08:01 10° SSE 17:12:54 57° ENE 17:17:57 10° N
USA 32 4.0 17:07:52 10° S 17:13:03 73° E 17:18:16 10° N
MOS 1 4.3 17:08:17 10° SSE 17:13:51 64° ENE 17:19:27 10° N
Cosmos 2263 Rocket 4.5 17:12:03 10° W 17:15:33 17° NW 17:19:05 10° N
EP 2 4.2 17:14:17 10° SSW 17:16:52 85° SE 17:19:38 10° NE
Tiangong 1 2.1 17:14:32 10° SW 17:17:18 33° SSE 17:19:54 11° E
SJ-12 3.9 17:14:03 10° SSE 17:18:06 66° ENE 17:22:12 10° N
Cosmos 1455 Rocket 3.0 17:17:56 10° N 17:22:20 69° E 17:26:45 10° SSE
IDEFIX/ARIANE 42P 2.5 17:24:06 10° SSE 17:29:17 79° ENE 17:34:30 10° N
SL-8 Rocket 4.2 17:23:19 10° N 17:29:29 74° W 17:35:36 10° S
AQUARIUS 4.1 17:28:09 10° SSE 17:32:39 87° ENE 17:37:10 10° NNW
Cosmos 1844 Rocket 3.9 17:34:04 10° SW 17:39:19 41° WNW 17:44:38 10° N
Thor Agena Rocket 3.6 17:34:12 10° NNE 17:39:26 85° WNW 17:44:42 10° SSW
Cosmos 1812 3.0 17:37:39 10° SSW 17:41:29 69° W 17:45:21 10° N
Cosmos 2366 rocket 4.2 17:35:34 10° N 17:41:56 81° W 17:48:13 10° S
OE (NEXTSAT) 4.3 17:42:54 10° WSW 17:46:29 88° NNW 17:48:25 26° ENE
Cosmos 2251 Rocket 4.4 17:41:57 10° NNW 17:47:09 53° WSW 17:52:17 10° S
CORIOLIS 4.4 17:45:18 10° S 17:50:42 76° WSW 17:56:07 10° NNW
NOSS 2-1 (D) 4.0 17:48:32 10° S 17:52:01 35° ESE 17:53:30 26° ENE
NOSS 2-1 (C) 4.0 17:49:13 10° S 17:52:43 35° ESE 17:54:09 26° ENE
Okean 1 3.6 17:50:10 10° SSW 17:54:12 71° W 17:58:16 10° N
Abrixas 2.9 17:51:29 10° NW 17:54:20 42° NNE 17:54:51 37° NE
Timation 1 Rocket 4.4 17:54:21 10° S 18:00:08 55° ESE 18:04:20 19° NE
Cosmos 1346 Rocket 2.8 18:01:07 10° SSW 18:05:00 78° W 18:08:50 10° N
Cosmos 2297 3.6 18:00:22 10° SSW 18:05:59 75° ESE 18:10:21 17° NNE
ISS -1.2 18:05:04 10° NW 18:07:14 16° N 18:07:47 16° N
BREEZE M DEB (TANK) 2.8 17:58:36 10° SW 18:07:25 71° SSE 18:08:45 37° ENE
Meteor 2-21 4.4 18:01:45 10° N 18:07:58 90° ENE 18:14:06 10° S
Timation 2 Rocket 4.1 18:02:38 10° NNW 18:09:30 79° ENE 18:16:24 10° SSE
NOSS 2-1 (E) 3.5 18:07:32 10° SSW 18:11:16 51° ESE 18:12:13 41° ENE
COSMO-SKYMED 1 2.5 18:10:34 13° NNE 18:14:30 87° ESE 18:18:50 10° SSW
Cosmos 1821 Rocket 3.9 18:10:07 10° N 18:16:08 58° E 18:22:07 10° SSE
NOAA 12 4.2 18:11:06 10° SE 18:16:11 51° ENE 18:21:16 10° N
Cosmos 2278 Rocket 3.2 18:12:37 10° SW 18:17:59 44° WNW 18:23:24 10° NNE
Intercosmos 25 2.8 18:17:43 10° N 18:20:56 85° WSW 18:24:16 10° S
CZ-3B DEB 3.3 18:21:24 10° W 18:25:44 46° NNW 18:31:37 22° NE
USA 234 3.9 18:22:16 20° NNE 18:26:32 47° NNW 18:32:43 10° W
Cosmos 1605 Rocket 4.3 18:20:42 10° N 18:26:36 40° ENE 18:32:21 10° SE
Meteor 2-14 Rocket 4.4 18:21:48 10° N 18:27:59 86° W 18:34:07 10° S
SL-8 R/B 4.3 18:24:43 10° W 18:29:20 46° NNW 18:30:27 38° NNE
METEOR-M 4.1 18:26:38 10° SSE 18:31:52 61° ENE 18:37:09 10° N
Cosmos 2056 Rocket 3.6 18:26:59 10° S 18:32:10 51° ESE 18:32:41 49° E
Cosmos 1025 Rocket 2.9 18:31:22 10° S 18:35:44 79° E 18:36:25 62° NNE
Cosmos 921 Rocket 3.5 18:34:20 10° SSW 18:38:31 58° WNW 18:40:22 31° N
Cosmos 1833 Rocket 2.7 18:34:50 10° NNW 18:40:30 79° WSW 18:46:07 10° SSE
Cosmos 1743 3.5 18:37:35 10° NNW 18:41:22 52° W 18:45:06 10° S
NOSS 3-4 (A) 3.7 18:35:16 10° NNW 18:42:13 63° NE 18:45:08 38° ESE
NOSS 3-4 (C) 3.7 18:35:22 10° NNW 18:42:19 63° NE 18:45:09 38° ESE
Meteor 1-19 Rocket 4.5 18:37:16 10° SSW 18:43:02 72° W 18:48:56 10° N
Cosmos 2082 Rocket 2.6 18:37:44 10° NNW 18:43:20 64° WSW 18:48:56 10° S
Cosmos 1624 Rocket 3.8 18:40:23 10° S 18:45:32 73° ESE 18:46:00 68° ENE
GEOS 3 Rocket 3.4 18:47:42 47° SE 18:49:16 90° NE 18:54:25 10° NW
Cosmos 1371 Rocket 4.0 18:45:15 10° SSW 18:50:36 82° WNW 18:52:09 48° N
Meteor 1-28 Rocket 3.8 18:50:54 55° W 18:50:54 55° W 18:54:32 10° SSW
Tiangong 1 3.5 18:50:20 10° W 18:51:36 22° W 18:51:36 22° W
Meteor 1-15 Rocket 4.1 18:48:13 10° N 18:54:09 75° E 18:59:56 10° SSE
Cosmos 1727 Rocket 4.5 18:56:18 10° S 19:00:30 42° SSE 19:00:30 42° SSE
Meteor 1-23 Rocket 4.5 19:03:57 10° SSW 19:09:38 68° WNW 19:11:35 41° N
Meteor 2-4 Rocket 4.5 19:13:53 10° SSW 19:19:02 46° WNW 19:21:04 32° NNW
Cosmos 2369 Rocket 4.4 19:18:04 10° S 19:18:34 13° S 19:18:34 13° S
ATLAS 3B CENTAUR R/B 4.4 19:57:48 10° W 20:08:08 27° SSW 20:08:44 26° SSW
